• Processing (Info)

  • MPEC 2014-Q78 : 2014 QQ296

    The following Minor Planet Electronic Circular may be linked-to from your own Web pages, but must not otherwise be redistributed electronically.

    A form allowing access to any MPEC is at the bottom of this page.


    Read MPEC 2014-Q77 Read MPEC 2014-Q79


    M.P.E.C. 2014-Q78                                Issued 2014 Aug. 28, 23:45 UT
    
         The Minor Planet Electronic Circulars contain information on unusual
             minor planets and routine data on comets.  They are published
       on behalf of Commission 20 of the International Astronomical Union by the
              Minor Planet Center, Smithsonian Astrophysical Observatory,
                              Cambridge, MA 02138, U.S.A.
    
                 Prepared using the Tamkin Foundation Computer Network
    
                                  MPC@CFA.HARVARD.EDU
                URL https://www.minorplanetcenter.net/    ISSN 1523-6714
    
                                      2014 QQ296
    
    Observations:
         K14QT6Q* C2014 08 22.43184 22 57 20.064-03 00 59.23         21.6 wLEQ078F51
         K14QT6Q  C2014 08 22.44358 22 57 19.665-03 00 52.37         21.5 wLEQ078F51
         K14QT6Q  C2014 08 22.45530 22 57 19.248-03 00 45.43         21.5 wLEQ078F51
         K14QT6Q  C2014 08 22.46698 22 57 18.844-03 00 38.75         21.3 wLEQ078F51
         K14QT6Q KC2014 08 24.01857422 56 33.315-02 45 27.68         21.3 RqEQ078J04
         K14QT6Q KC2014 08 24.02628722 56 33.010-02 45 23.18         21.1 RqEQ078J04
         K14QT6Q KC2014 08 24.03399722 56 32.726-02 45 18.59         21.2 RqEQ078J04
         K14QT6Q KC2014 08 26.23635722 55 18.84 -02 23 22.5          21.2 VuEQ078H21
         K14QT6Q KC2014 08 26.24989922 55 18.27 -02 23 14.6          21.3 VuEQ078H21
         K14QT6Q KC2014 08 26.26372222 55 17.71 -02 23 06.2          21.1 VuEQ078H21
         K14QT6Q  C2014 08 27.98001 22 54 13.47 -02 05 39.7          21.4 VMEQ078033
         K14QT6Q  C2014 08 27.98456 22 54 13.27 -02 05 37.0          21.4 VMEQ078033
         K14QT6Q  C2014 08 28.01568 22 54 11.87 -02 05 17.7          21.3 VMEQ078033
         K14QT6Q  C2014 08 28.02023 22 54 11.67 -02 05 15.0          21.3 VMEQ078033
    
    Observer details:
    033 Karl Schwarzschild Observatory, Tautenburg.  Observer B. Stecklum.  1.34-m
        f/4 Schmidt + CCD.
    F51 Pan-STARRS 1, Haleakala.  Observers N. Primak, A. Schultz, T. Goggia,
        M. Willman.  Measurers B. Bolin, K. Chambers, S. Chastel, L. Denneau,
        H. Flewelling, M. Huber, E. Magnier, E. Schunova, R. Wainscoat, C. Waters.
        1.8-m Ritchey-Chretien + CCD.
    H21 Astronomical Research Observatory, Westfield.  Observer R. Holmes.
        Measurers L. Buzzi, S. Foglia, T. Vorobjov, T. Linder.  0.61-m f/4.5
        astrograph + CCD.
    J04 ESA Optical Ground Station, Tenerife.  Observer P. Ruiz.  Measurers
        M. Micheli, D. Koschny, M. Busch, A. Knoefel, E. Schwab.  1.0-m f/4.4
        reflector + CCD.
    
    Orbital elements:
    2014 QQ296                                               Earth MOID = 0.1940 AU
    Epoch 2014 Dec. 9.0 TT = JDT 2457000.5                  MPC
    M   5.92482              (2000.0)            P               Q
    n   0.26969866     Peri.   82.64133     +0.71390002     -0.69800387
    a   2.3725581      Node   321.59982     +0.60162939     +0.65232375
    e   0.5110387      Incl.    5.17367     +0.35831389     +0.29540535
    P   3.65           H   21.4           G   0.15           U   7
    Residuals in seconds of arc
    140822 F51  0.1-  0.0     140824 J04  0.1+  0.1+    140827 033  0.2+  0.1+
    140822 F51  0.1+  0.0     140824 J04  0.1+  0.2+    140827 033  0.2+  0.0
    140822 F51  0.1-  0.1+    140826 H21  0.2-  0.0     140828 033  0.1-  0.1+
    140822 F51  0.0   0.1-    140826 H21  0.3-  0.3-    140828 033  0.1-  0.0
    140824 J04  0.3+  0.2+    140826 H21  0.0   0.2-
    
    Ephemeris:
    2014 QQ296               a,e,i = 2.37, 0.51, 5                   q = 1.1601
    Date    TT    R. A. (2000) Decl.     Delta      r     Elong.  Phase     V
    2014 07 29    22 58 17.8 -06 40 32   0.7257  1.6509   142.4    22.0    22.9
    ...
    2014 08 13    23 00 06.8 -04 29 22   0.5733  1.5531   155.5    15.7    22.0
    ...
    2014 08 21    22 57 57.5 -03 14 44   0.5054  1.5022   162.9    11.4    21.5
    ...
    2014 08 27    22 54 50.8 -02 15 26   0.4609  1.4650   168.5     7.9    21.1
    2014 08 28    22 54 12.7 -02 05 13   0.4540  1.4589   169.4     7.3    21.0
    2014 08 29    22 53 32.6 -01 54 52   0.4473  1.4528   170.2     6.8    21.0
    ...
    2014 09 04    22 48 57.0 -00 50 18   0.4102  1.4169   173.5     4.6    20.6
    ...
    2014 09 12    22 41 41.0 +00 43 38   0.3693  1.3711   169.3     7.8    20.5
    ...
    2014 09 27    22 28 10.4 +04 07 02   0.3160  1.2932   153.6    20.1    20.5
    
    A. U. Tomatic                (C) Copyright 2014 MPC           M.P.E.C. 2014-Q78
    

    Read MPEC 2014-Q77 Read MPEC 2014-Q79


    MPEC number:

    Enter an MPEC number in one of the following forms:

    • 1997-B01 (the full form)
    • J97B01 (the packed version of the full form)
    • B01 (the abbreviated form)